Terug naar catalogus

AGILA 1

PALAPA B2P

ActiefCommunicatieGEO
NORAD 17706·PAYLOAD·🇵🇭 Philippines

Gelanceerd Mar 20, 1987 vanaf Cape Canaveral Space Force Station

Loading…

TLE

VersSource: Space-Track

Epoch: Sep 14, 2026, 09:46 UTC

1 17706U 87029A   26257.40705137  .00000055  00000-0  00000-0 0  9996
2 17706  14.3345 347.4973 0000622  44.4538 339.2725  0.99905665 43421

Volg AGILA 1 in realtime met AllMySat

Download on the App Store